User: anonymous   Login
Location: SAPM � Hemmingford
(45.0500°N, 73.5833°W)
Time: 01:57:30
(UTC-04:00)
Language:

Cosmos 1603 - Orbit

View from above orbital plane
View from above orbital plane
View from above satellite
View from above satellite

Ground track
Ground track

The orbit data is extracted from the following two-line orbital elements,

1 15333U 84106A   15243.82515523  .00000220  00000-0  14039-3 0  9994
2 15333  71.0268  24.6262 0018287 128.4413  23.3187 14.14006952595625
Epoch (UTC): 31 August 2015 19:48:13
Eccentricity: 0.0018287
inclination: 71.0268°
perigee height: 832 km
apogee height: 859 km
right ascension of ascending node: 24.6262°
argument of perigee: 128.4413°
revolutions per day: 14.14006952
mean anomaly at epoch: 23.3187°
orbit number at epoch: 59562

The dashed part of the orbit path shows where the satellite is in the earth's shadow,  

DLR